| time (UTC) | temp C | wind direction | speed KPH | gust KPH | rain 1hr cm | rain 24hr cm | rain mn cm | humidity % | barometer mb |
| 20260905065034 | 22 | 360 | 8.0 | 0.0 | 0.00 | 0.00 | 0.00 | 70 | 1005.2 |
| 20260905064634 | 22 | 360 | 8.0 | 0.0 | 0.00 | 0.00 | 0.00 | 69 | 1005.3 |
| 20260905064037 | 22 | 360 | 8.0 | 0.0 | 0.00 | 0.00 | 0.00 | 69 | 1005.4 |
| 20260905063535 | 22 | 360 | 6.4 | 0.0 | 0.00 | 0.00 | 0.00 | 68 | 1005.3 |
| 20260905063035 | 22 | 360 | 8.0 | 0.0 | 0.00 | 0.00 | 0.00 | 67 | 1005.2 |
| 20260905062534 | 22 | 360 | 8.0 | 0.0 | 0.00 | 0.00 | 0.00 | 66 | 1005.2 |
| 20260905062034 | 22 | 360 | 8.0 | 0.0 | 0.00 | 0.00 | 0.00 | 66 | 1005.2 |
| 20260905061545 | 22 | 360 | 8.0 | 0.0 | 0.00 | 0.00 | 0.00 | 65 | 1005.1 |
| 20260905061034 | 22 | 360 | 8.0 | 0.0 | 0.00 | 0.00 | 0.00 | 64 | 1005.0 |
| 20260905060533 | 22 | 360 | 8.0 | 0.0 | 0.00 | 0.00 | 0.00 | 64 | 1005.1 |
| 20260905060034 | 23 | 360 | 8.0 | 0.0 | 0.00 | 0.00 | 0.00 | 64 | 1005.0 |
| 20260905055534 | 23 | 360 | 9.7 | 0.0 | 0.00 | 0.00 | 0.00 | 63 | 1005.0 |
| 20260905055034 | 23 | 360 | 9.7 | 0.0 | 0.00 | 0.00 | 0.00 | 63 | 1004.9 |
| 20260905054634 | 22 | 360 | 9.7 | 0.0 | 0.00 | 0.00 | 0.00 | 63 | 1004.9 |
| 20260905054033 | 22 | 360 | 9.7 | 0.0 | 0.00 | 0.00 | 0.00 | 63 | 1004.9 |
| 20260905053535 | 22 | 360 | 9.7 | 0.0 | 0.00 | 0.00 | 0.00 | 62 | 1004.9 |
| 20260905053033 | 23 | 360 | 9.7 | 0.0 | 0.00 | 0.00 | 0.00 | 61 | 1004.9 |
| 20260905052536 | 23 | 360 | 8.0 | 0.0 | 0.00 | 0.00 | 0.00 | 60 | 1004.9 |
| 20260905052034 | 23 | 360 | 8.0 | 0.0 | 0.00 | 0.00 | 0.00 | 60 | 1005.0 |
| 20260905051538 | 23 | 360 | 8.0 | 0.0 | 0.00 | 0.00 | 0.00 | 58 | 1005.0 |
| 20260905051032 | 23 | 360 | 8.0 | 0.0 | 0.00 | 0.00 | 0.00 | 58 | 1005.1 |
| 20260905050532 | 24 | 360 | 9.7 | 0.0 | 0.00 | 0.00 | 0.00 | 57 | 1005.0 |
| 20260905050035 | 24 | 360 | 9.7 | 0.0 | 0.00 | 0.00 | 0.00 | 56 | 1005.0 |
| 20260905045533 | 24 | 360 | 11.3 | 0.0 | 0.00 | 0.00 | 0.00 | 56 | 1005.0 |
| 20260905045032 | 25 | 360 | 14.5 | 0.0 | 0.00 | 0.00 | 0.00 | 55 | 1005.0 |
| 20260905044633 | 25 | 360 | 14.5 | 0.0 | 0.00 | 0.00 | 0.00 | 55 | 1005.0 |
| 20260905044032 | 25 | 360 | 16.1 | 0.0 | 0.00 | 0.00 | 0.00 | 55 | 1004.9 |
| 20260905043532 | 25 | 95 | 16.1 | 0.0 | 0.00 | 0.00 | 0.00 | 55 | 1004.9 |
| 20260905043032 | 25 | 98 | 16.1 | 0.0 | 0.00 | 0.00 | 0.00 | 54 | 1004.9 |
| 20260905042533 | 25 | 98 | 16.1 | 0.0 | 0.00 | 0.00 | 0.00 | 54 | 1004.9 |
| 20260905042032 | 25 | 103 | 16.1 | 0.0 | 0.00 | 0.00 | 0.00 | 53 | 1004.9 |
| 20260905041532 | 25 | 107 | 19.3 | 0.0 | 0.00 | 0.00 | 0.00 | 53 | 1004.8 |
| 20260905041033 | 25 | 98 | 17.7 | 0.0 | 0.00 | 0.00 | 0.00 | 52 | 1004.7 |
| 20260905040631 | 25 | 86 | 16.1 | 0.0 | 0.00 | 0.00 | 0.00 | 52 | 1004.8 |
| 20260905040032 | 26 | 360 | 16.1 | 0.0 | 0.00 | 0.00 | 0.00 | 52 | 1004.8 |
| 20260905035530 | 26 | 360 | 16.1 | 0.0 | 0.00 | 0.00 | 0.00 | 52 | 1004.9 |
| 20260905035030 | 26 | 360 | 14.5 | 0.0 | 0.00 | 0.00 | 0.00 | 51 | 1004.9 |
| 20260905034631 | 26 | 360 | 14.5 | 0.0 | 0.00 | 0.00 | 0.00 | 51 | 1005.0 |
| 20260905034034 | 26 | 360 | 14.5 | 0.0 | 0.00 | 0.00 | 0.00 | 52 | 1005.0 |
| 20260905033530 | 26 | 360 | 14.5 | 0.0 | 0.00 | 0.00 | 0.00 | 52 | 1005.1 |
| 20260905033033 | 26 | 360 | 14.5 | 0.0 | 0.00 | 0.00 | 0.00 | 52 | 1005.0 |
| 20260905032531 | 26 | 360 | 14.5 | 0.0 | 0.00 | 0.00 | 0.00 | 52 | 1005.1 |
| 20260905032030 | 26 | 360 | 14.5 | 0.0 | 0.00 | 0.00 | 0.00 | 53 | 1005.1 |
| 20260905031531 | 26 | 360 | 14.5 | 0.0 | 0.00 | 0.00 | 0.00 | 53 | 1005.1 |
| 20260905031031 | 26 | 360 | 12.9 | 0.0 | 0.00 | 0.00 | 0.00 | 53 | 1005.2 |
| 20260905030530 | 26 | 360 | 11.3 | 0.0 | 0.00 | 0.00 | 0.00 | 53 | 1005.2 |
| 20260905030037 | 26 | 360 | 11.3 | 0.0 | 0.00 | 0.00 | 0.00 | 53 | 1005.3 |
| 20260905025530 | 27 | 360 | 12.9 | 0.0 | 0.00 | 0.00 | 0.00 | 52 | 1005.1 |
| 20260905025030 | 27 | 360 | 12.9 | 0.0 | 0.00 | 0.00 | 0.00 | 51 | 1005.0 |
| 20260905024630 | 27 | 360 | 11.3 | 0.0 | 0.00 | 0.00 | 0.00 | 52 | 1005.1 |
| 20260905024031 | 27 | 360 | 11.3 | 0.0 | 0.00 | 0.00 | 0.00 | 51 | 1005.0 |
| 20260905023532 | 28 | 360 | 12.9 | 0.0 | 0.00 | 0.00 | 0.00 | 50 | 1005.1 |
| 20260905023033 | 28 | 360 | 14.5 | 0.0 | 0.00 | 0.00 | 0.00 | 50 | 1005.0 |
| 20260905022531 | 28 | 360 | 12.9 | 0.0 | 0.00 | 0.00 | 0.00 | 51 | 1005.0 |
| 20260905022030 | 28 | 360 | 11.3 | 0.0 | 0.00 | 0.00 | 0.00 | 52 | 1005.0 |
| 20260905021530 | 28 | 360 | 12.9 | 0.0 | 0.00 | 0.00 | 0.00 | 52 | 1004.9 |
| 20260905021030 | 28 | 360 | 12.9 | 0.0 | 0.00 | 0.00 | 0.00 | 52 | 1004.8 |
| 20260905020529 | 28 | 360 | 12.9 | 0.0 | 0.00 | 0.00 | 0.00 | 52 | 1004.8 |
| 20260905020036 | 27 | 360 | 11.3 | 0.0 | 0.00 | 0.00 | 0.00 | 54 | 1004.8 |
| 20260905015531 | 27 | 360 | 11.3 | 0.0 | 0.00 | 0.00 | 0.00 | 54 | 1004.5 |
| 20260905015030 | 27 | 360 | 8.0 | 0.0 | 0.00 | 0.00 | 0.00 | 54 | 1004.5 |
| 20260905014629 | 27 | 360 | 8.0 | 0.0 | 0.00 | 0.00 | 0.00 | 52 | 1004.5 |
| 20260905014030 | 27 | 360 | 8.0 | 0.0 | 0.00 | 0.00 | 0.00 | 52 | 1004.5 |
| 20260905013529 | 28 | 360 | 9.7 | 0.0 | 0.00 | 0.00 | 0.00 | 51 | 1004.4 |
| 20260905013031 | 28 | 360 | 8.0 | 0.0 | 0.00 | 0.00 | 0.00 | 51 | 1004.4 |
| 20260905012529 | 28 | 360 | 8.0 | 0.0 | 0.00 | 0.00 | 0.00 | 50 | 1004.3 |
| 20260905012029 | 28 | 360 | 8.0 | 0.0 | 0.00 | 0.00 | 0.00 | 49 | 1004.4 |
| 20260905011528 | 29 | 360 | 8.0 | 0.0 | 0.00 | 0.00 | 0.00 | 48 | 1004.3 |
| 20260905011028 | 29 | 360 | 8.0 | 0.0 | 0.00 | 0.00 | 0.00 | 47 | 1004.3 |
| 20260905010528 | 30 | 360 | 8.0 | 0.0 | 0.00 | 0.00 | 0.00 | 46 | 1004.3 |
| 20260905010027 | 30 | 360 | 8.0 | 0.0 | 0.00 | 0.00 | 0.00 | 45 | 1004.3 |
| 20260905005527 | 30 | 360 | 8.0 | 0.0 | 0.00 | 0.00 | 0.00 | 44 | 1004.2 |
| 20260905005028 | 31 | 86 | 8.0 | 0.0 | 0.00 | 0.00 | 0.00 | 43 | 1004.2 |
| 20260905004626 | 31 | 90 | 8.0 | 0.0 | 0.00 | 0.00 | 0.00 | 41 | 1004.2 |
| 20260905004025 | 31 | 89 | 8.0 | 0.0 | 0.00 | 0.00 | 0.00 | 41 | 1004.2 |
| 20260905003527 | 32 | 86 | 8.0 | 0.0 | 0.00 | 0.00 | 0.00 | 40 | 1004.0 |
| 20260905003031 | 32 | 360 | 9.7 | 0.0 | 0.00 | 0.00 | 0.00 | 38 | 1004.0 |
| 20260905002524 | 32 | 81 | 11.3 | 0.0 | 0.00 | 0.00 | 0.00 | 37 | 1004.1 |
| 20260905002025 | 32 | 81 | 9.7 | 0.0 | 0.00 | 0.00 | 0.00 | 36 | 1004.0 |
| 20260905001544 | 32 | 100 | 9.7 | 0.0 | 0.00 | 0.00 | 0.00 | 36 | 1004.2 |
| 20260905001028 | 32 | 94 | 9.7 | 0.0 | 0.00 | 0.00 | 0.00 | 36 | 1004.1 |
| 20260905000526 | 33 | 86 | 9.7 | 0.0 | 0.00 | 0.00 | 0.00 | 36 | 1004.2 |
| 20260905000024 | 33 | 111 | 9.7 | 0.0 | 0.00 | 0.00 | 0.00 | 34 | 1004.2 |
| 20260904235524 | 33 | 121 | 11.3 | 0.0 | 0.00 | 0.00 | 0.00 | 34 | 1004.2 |
| 20260904235026 | 33 | 93 | 11.3 | 0.0 | 0.00 | 0.00 | 0.00 | 33 | 1004.3 |
| 20260904234624 | 33 | 119 | 9.7 | 0.0 | 0.00 | 0.00 | 0.00 | 34 | 1004.4 |
| 20260904234023 | 33 | 110 | 11.3 | 0.0 | 0.00 | 0.00 | 0.00 | 33 | 1004.4 |
| 20260904233523 | 33 | 98 | 11.3 | 0.0 | 0.00 | 0.00 | 0.00 | 33 | 1004.3 |
| 20260904233038 | 33 | 109 | 12.9 | 0.0 | 0.00 | 0.00 | 0.00 | 34 | 1004.3 |
| 20260904232524 | 33 | 360 | 12.9 | 0.0 | 0.00 | 0.00 | 0.00 | 33 | 1004.3 |
| 20260904232022 | 33 | 134 | 12.9 | 0.0 | 0.00 | 0.00 | 0.00 | 33 | 1004.3 |
| 20260904231530 | 33 | 111 | 12.9 | 0.0 | 0.00 | 0.00 | 0.00 | 32 | 1004.4 |
| 20260904231021 | 33 | 140 | 16.1 | 0.0 | 0.00 | 0.00 | 0.00 | 33 | 1004.4 |
| 20260904230521 | 33 | 360 | 14.5 | 0.0 | 0.00 | 0.00 | 0.00 | 33 | 1004.5 |
| 20260904230021 | 34 | 141 | 14.5 | 0.0 | 0.00 | 0.00 | 0.00 | 33 | 1004.5 |
| 20260904225523 | 34 | 360 | 16.1 | 0.0 | 0.00 | 0.00 | 0.00 | 33 | 1004.5 |
| 20260904225020 | 34 | 360 | 17.7 | 0.0 | 0.00 | 0.00 | 0.00 | 34 | 1004.5 |
| 20260904224620 | 33 | 124 | 17.7 | 0.0 | 0.00 | 0.00 | 0.00 | 35 | 1004.4 |
| 20260904224020 | 33 | 127 | 16.1 | 0.0 | 0.00 | 0.00 | 0.00 | 35 | 1004.5 |
| 20260904223521 | 33 | 360 | 16.1 | 0.0 | 0.00 | 0.00 | 0.00 | 35 | 1004.5 |
| 20260904223020 | 33 | 360 | 16.1 | 0.0 | 0.00 | 0.00 | 0.00 | 35 | 1004.5 |
| 20260904222520 | 33 | 360 | 17.7 | 0.0 | 0.00 | 0.00 | 0.00 | 35 | 1004.5 |
| 20260904222018 | 33 | 360 | 17.7 | 0.0 | 0.00 | 0.00 | 0.00 | 34 | 1004.6 |
| 20260904221518 | 33 | 360 | 17.7 | 0.0 | 0.00 | 0.00 | 0.00 | 35 | 1004.6 |
| 20260904221017 | 33 | 360 | 17.7 | 0.0 | 0.00 | 0.00 | 0.00 | 35 | 1004.7 |
| 20260904220517 | 33 | 360 | 17.7 | 0.0 | 0.00 | 0.00 | 0.00 | 35 | 1004.7 |
| 20260904220017 | 33 | 360 | 19.3 | 0.0 | 0.00 | 0.00 | 0.00 | 35 | 1004.8 |
| 20260904215517 | 33 | 360 | 19.3 | 0.0 | 0.00 | 0.00 | 0.00 | 35 | 1004.9 |
| 20260904215016 | 33 | 360 | 19.3 | 0.0 | 0.00 | 0.00 | 0.00 | 35 | 1004.8 |
| 20260904214615 | 33 | 360 | 19.3 | 0.0 | 0.00 | 0.00 | 0.00 | 36 | 1004.9 |
| 20260904214015 | 33 | 360 | 17.7 | 0.0 | 0.00 | 0.00 | 0.00 | 36 | 1004.9 |
| 20260904213516 | 33 | 360 | 17.7 | 0.0 | 0.00 | 0.00 | 0.00 | 36 | 1004.9 |
| 20260904213022 | 33 | 360 | 19.3 | 0.0 | 0.00 | 0.00 | 0.00 | 36 | 1004.9 |
| 20260904212513 | 33 | 360 | 20.9 | 0.0 | 0.00 | 0.00 | 0.00 | 36 | 1005.0 |
| 20260904212012 | 33 | 360 | 20.9 | 0.0 | 0.00 | 0.00 | 0.00 | 37 | 1005.0 |
| 20260904211513 | 33 | 360 | 22.5 | 0.0 | 0.00 | 0.00 | 0.00 | 37 | 1005.0 |
| 20260904211013 | 33 | 360 | 22.5 | 0.0 | 0.00 | 0.00 | 0.00 | 38 | 1004.9 |
| 20260904210511 | 32 | 360 | 24.1 | 0.0 | 0.00 | 0.00 | 0.00 | 38 | 1005.0 |
| 20260904210010 | 32 | 360 | 24.1 | 0.0 | 0.00 | 0.00 | 0.00 | 37 | 1005.0 |
| 20260904205510 | 32 | 360 | 24.1 | 0.0 | 0.00 | 0.00 | 0.00 | 37 | 1005.0 |
| 20260904205010 | 32 | 360 | 22.5 | 0.0 | 0.00 | 0.00 | 0.00 | 36 | 1005.0 |
| 20260904204609 | 32 | 360 | 22.5 | 0.0 | 0.00 | 0.00 | 0.00 | 37 | 1005.1 |
| 20260904204009 | 32 | 360 | 24.1 | 0.0 | 0.00 | 0.00 | 0.00 | 37 | 1005.1 |
| 20260904203508 | 32 | 360 | 25.7 | 0.0 | 0.00 | 0.00 | 0.00 | 39 | 1005.1 |
| 20260904203008 | 32 | 360 | 25.7 | 0.0 | 0.00 | 0.00 | 0.00 | 39 | 1005.2 |
| 20260904202507 | 32 | 360 | 25.7 | 0.0 | 0.00 | 0.00 | 0.00 | 38 | 1005.2 |
| 20260904202007 | 32 | 360 | 25.7 | 0.0 | 0.00 | 0.00 | 0.00 | 38 | 1005.2 |
| 20260904201506 | 32 | 360 | 25.7 | 0.0 | 0.00 | 0.00 | 0.00 | 38 | 1005.3 |
| 20260904201006 | 32 | 360 | 24.1 | 0.0 | 0.00 | 0.00 | 0.00 | 38 | 1005.3 |
| 20260904200510 | 32 | 360 | 25.7 | 0.0 | 0.00 | 0.00 | 0.00 | 37 | 1005.3 |
| 20260904200006 | 32 | 360 | 25.7 | 0.0 | 0.00 | 0.00 | 0.00 | 37 | 1005.5 |
| 20260904195505 | 32 | 360 | 24.1 | 0.0 | 0.00 | 0.00 | 0.00 | 37 | 1005.4 |
| 20260904195003 | 32 | 360 | 24.1 | 0.0 | 0.00 | 0.00 | 0.00 | 38 | 1005.6 |
| 20260904194603 | 31 | 360 | 25.7 | 0.0 | 0.00 | 0.00 | 0.00 | 38 | 1005.7 |
| 20260904194003 | 31 | 360 | 25.7 | 0.0 | 0.00 | 0.00 | 0.00 | 38 | 1005.7 |
| 20260904193500 | 31 | 360 | 27.4 | 0.0 | 0.00 | 0.00 | 0.00 | 37 | 1005.9 |
| 20260904193123 | 31 | 360 | 27.4 | 0.0 | 0.00 | 0.00 | 0.00 | 38 | 1006.1 |
| 20260904192559 | 31 | 360 | 29.0 | 0.0 | 0.00 | 0.00 | 0.00 | 37 | 1006.1 |
| 20260904192100 | 31 | 360 | 29.0 | 0.0 | 0.00 | 0.00 | 0.00 | 36 | 1006.1 |
| 20260904191559 | 31 | 360 | 30.6 | 0.0 | 0.00 | 0.00 | 0.00 | 35 | 1006.2 |
| 20260904191058 | 31 | 360 | 30.6 | 0.0 | 0.00 | 0.00 | 0.00 | 36 | 1006.2 |
| 20260904190558 | 31 | 360 | 29.0 | 0.0 | 0.00 | 0.00 | 0.00 | 34 | 1006.4 |
| 20260904190056 | 30 | 360 | 24.1 | 0.0 | 0.00 | 0.00 | 0.00 | 34 | 1006.4 |
| 20260904185556 | 30 | 360 | 24.1 | 0.0 | 0.00 | 0.00 | 0.00 | 42 | 1006.4 |
| 20260904185056 | 30 | 360 | 24.1 | 0.0 | 0.00 | 0.00 | 0.00 | 42 | 1006.5 |
| 20260904184555 | 30 | 360 | 25.7 | 0.0 | 0.00 | 0.00 | 0.00 | 40 | 1006.6 |
| 20260904184056 | 30 | 360 | 25.7 | 0.0 | 0.00 | 0.00 | 0.00 | 41 | 1006.6 |
| 20260904183554 | 30 | 360 | 27.4 | 0.0 | 0.00 | 0.00 | 0.00 | 40 | 1006.7 |
| 20260904183054 | 30 | 360 | 29.0 | 0.0 | 0.00 | 0.00 | 0.00 | 40 | 1006.8 |
| 20260904182553 | 30 | 360 | 27.4 | 0.0 | 0.00 | 0.00 | 0.00 | 39 | 1006.9 |
| 20260904182052 | 30 | 360 | 25.7 | 0.0 | 0.00 | 0.00 | 0.00 | 41 | 1006.9 |
| 20260904181550 | 30 | 360 | 25.7 | 0.0 | 0.00 | 0.00 | 0.00 | 44 | 1007.1 |
| 20260904181049 | 29 | 360 | 27.4 | 0.0 | 0.00 | 0.00 | 0.00 | 42 | 1007.3 |
| 20260904180551 | 28 | 360 | 25.7 | 0.0 | 0.00 | 0.00 | 0.00 | 48 | 1007.5 |
| 20260904180048 | 28 | 101 | 25.7 | 0.0 | 0.00 | 0.00 | 0.00 | 52 | 1007.5 |
| 20260904175545 | 28 | 104 | 25.7 | 0.0 | 0.00 | 0.00 | 0.00 | 54 | 1007.6 |
| 20260904175043 | 27 | 129 | 27.4 | 0.0 | 0.00 | 0.00 | 0.00 | 56 | 1007.6 |
| 20260904174542 | 27 | 127 | 27.4 | 0.0 | 0.00 | 0.00 | 0.00 | 56 | 1007.8 |
| 20260904174042 | 27 | 121 | 27.4 | 0.0 | 0.00 | 0.00 | 0.00 | 57 | 1007.8 |
| 20260904173541 | 27 | 121 | 27.4 | 0.0 | 0.00 | 0.00 | 0.00 | 58 | 1008.0 |
| 20260904173050 | 27 | 128 | 25.7 | 0.0 | 0.00 | 0.00 | 0.00 | 59 | 1008.0 |
| 20260904172540 | 26 | 131 | 24.1 | 0.0 | 0.00 | 0.00 | 0.00 | 60 | 1008.1 |
| 20260904172038 | 26 | 101 | 25.7 | 0.0 | 0.00 | 0.00 | 0.00 | 62 | 1008.2 |
| 20260904171536 | 26 | 125 | 25.7 | 0.0 | 0.00 | 0.00 | 0.00 | 62 | 1008.4 |
| 20260904171039 | 26 | 360 | 24.1 | 0.0 | 0.00 | 0.00 | 0.00 | 64 | 1008.4 |
| 20260904170535 | 26 | 95 | 25.7 | 0.0 | 0.00 | 0.00 | 0.00 | 65 | 1008.4 |
| 20260904170034 | 25 | 124 | 24.1 | 0.0 | 0.00 | 0.00 | 0.00 | 66 | 1008.4 |
| 20260904165533 | 25 | 109 | 24.1 | 0.0 | 0.00 | 0.00 | 0.00 | 67 | 1008.4 |
| 20260904165034 | 25 | 360 | 24.1 | 0.0 | 0.00 | 0.00 | 0.00 | 69 | 1008.5 |
| 20260904164530 | 24 | 110 | 25.7 | 0.0 | 0.00 | 0.00 | 0.00 | 71 | 1008.5 |
| 20260904164028 | 24 | 119 | 25.7 | 0.0 | 0.00 | 0.00 | 0.00 | 71 | 1008.6 |
| 20260904163528 | 23 | 105 | 25.7 | 0.0 | 0.00 | 0.00 | 0.00 | 72 | 1008.6 |
| 20260904163027 | 23 | 119 | 25.7 | 0.0 | 0.00 | 0.00 | 0.00 | 72 | 1008.7 |
| 20260904162530 | 23 | 360 | 25.7 | 0.0 | 0.00 | 0.00 | 0.00 | 74 | 1008.6 |
| 20260904162025 | 23 | 127 | 24.1 | 0.0 | 0.00 | 0.00 | 0.00 | 76 | 1008.6 |
| 20260904161526 | 22 | 119 | 22.5 | 0.0 | 0.00 | 0.00 | 0.00 | 79 | 1008.6 |
| 20260904161022 | 22 | 103 | 19.3 | 0.0 | 0.00 | 0.00 | 0.00 | 79 | 1008.8 |
| 20260904160524 | 22 | 360 | 19.3 | 0.0 | 0.00 | 0.00 | 0.00 | 81 | 1008.7 |
| 20260904160020 | 22 | 360 | 20.9 | 0.0 | 0.00 | 0.00 | 0.00 | 83 | 1008.8 |
| 20260904155518 | 21 | 360 | 19.3 | 0.0 | 0.00 | 0.00 | 0.00 | 85 | 1009.0 |
| 20260904155017 | 21 | 360 | 16.1 | 0.0 | 0.00 | 0.00 | 0.00 | 88 | 1008.9 |
| 20260904154516 | 20 | 360 | 14.5 | 0.0 | 0.00 | 0.00 | 0.00 | 92 | 1009.0 |
| 20260904154016 | 20 | 360 | 16.1 | 0.0 | 0.00 | 0.00 | 0.00 | 92 | 1009.0 |
| 20260904153517 | 20 | 360 | 16.1 | 0.0 | 0.00 | 0.00 | 0.00 | 93 | 1009.0 |
| 20260904153014 | 19 | 360 | 16.1 | 0.0 | 0.00 | 0.00 | 0.00 | 94 | 1009.1 |
| 20260904152512 | 18 | 360 | 14.5 | 0.0 | 0.00 | 0.00 | 0.00 | 94 | 1009.2 |
| 20260904152015 | 18 | 360 | 12.9 | 0.0 | 0.00 | 0.00 | 0.00 | 95 | 1009.2 |
| 20260904151511 | 18 | 360 | 12.9 | 0.0 | 0.00 | 0.00 | 0.00 | 95 | 1009.1 |
| 20260904151010 | 18 | 360 | 14.5 | 0.0 | 0.00 | 0.00 | 0.00 | 95 | 1009.1 |
| 20260904150509 | 18 | 360 | 16.1 | 0.0 | 0.00 | 0.00 | 0.00 | 96 | 1009.2 |
| 20260904150011 | 18 | 360 | 14.5 | 0.0 | 0.00 | 0.00 | 0.00 | 95 | 1009.2 |
| 20260904145508 | 18 | 360 | 12.9 | 0.0 | 0.00 | 0.00 | 0.00 | 96 | 1009.2 |
| 20260904145006 | 17 | 360 | 12.9 | 0.0 | 0.00 | 0.00 | 0.00 | 96 | 1009.2 |
| 20260904144506 | 17 | 360 | 11.3 | 0.0 | 0.00 | 0.00 | 0.00 | 96 | 1009.6 |
| 20260904144007 | 17 | 360 | 9.7 | 0.0 | 0.00 | 0.00 | 0.00 | 96 | 1009.6 |
| 20260904143505 | 17 | 360 | 9.7 | 0.0 | 0.00 | 0.00 | 0.00 | 96 | 1009.6 |
| 20260904143004 | 17 | 360 | 8.0 | 0.0 | 0.00 | 0.00 | 0.00 | 96 | 1009.7 |
| 20260904142504 | 17 | 360 | 8.0 | 0.0 | 0.00 | 0.00 | 0.00 | 96 | 1009.8 |
| 20260904142004 | 17 | 360 | 8.0 | 0.0 | 0.00 | 0.00 | 0.00 | 96 | 1009.8 |
| 20260904141502 | 17 | 360 | 6.4 | 0.0 | 0.00 | 0.00 | 0.00 | 96 | 1009.8 |
| 20260904141001 | 17 | 360 | 8.0 | 0.0 | 0.00 | 0.00 | 0.00 | 96 | 1009.7 |
| 20260904140501 | 17 | 360 | 8.0 | 0.0 | 0.00 | 0.00 | 0.00 | 96 | 1009.7 |
| 20260904135600 | 16 | 360 | 9.7 | 0.0 | 0.00 | 0.00 | 0.00 | 95 | 1009.7 |
| 20260904135059 | 16 | 360 | 8.0 | 0.0 | 0.00 | 0.00 | 0.00 | 95 | 1009.6 |
| 20260904134604 | 16 | 360 | 9.7 | 0.0 | 0.00 | 0.00 | 0.00 | 95 | 1009.6 |
| 20260904133559 | 16 | 360 | 9.7 | 0.0 | 0.00 | 0.00 | 0.00 | 95 | 1009.3 |
| 20260904133107 | 16 | 360 | 9.7 | 0.0 | 0.00 | 0.00 | 0.00 | 95 | 1009.4 |
| 20260904132659 | 16 | 360 | 8.0 | 0.0 | 0.00 | 0.00 | 0.00 | 95 | 1009.4 |
| 20260904132058 | 16 | 360 | 8.0 | 0.0 | 0.00 | 0.00 | 0.00 | 95 | 1009.3 |
| 20260904131602 | 16 | 360 | 8.0 | 0.0 | 0.00 | 0.00 | 0.00 | 95 | 1009.3 |
| 20260904131058 | 16 | 360 | 6.4 | 0.0 | 0.00 | 0.00 | 0.00 | 95 | 1009.4 |
| 20260904130557 | 16 | 360 | 4.8 | 0.0 | 0.00 | 0.00 | 0.00 | 95 | 1009.4 |
| 20260904130058 | 16 | 360 | 4.8 | 0.0 | 0.00 | 0.00 | 0.00 | 95 | 1009.4 |
| 20260904125600 | 16 | 360 | 3.2 | 0.0 | 0.00 | 0.00 | 0.00 | 95 | 1009.4 |
| 20260904125056 | 16 | 360 | 3.2 | 0.0 | 0.00 | 0.00 | 0.00 | 95 | 1009.2 |
| 20260904124603 | 16 | 360 | 4.8 | 0.0 | 0.00 | 0.00 | 0.00 | 95 | 1009.1 |
| 20260904123555 | 16 | 360 | 6.4 | 0.0 | 0.00 | 0.00 | 0.00 | 95 | 1009.1 |
| 20260904123055 | 16 | 360 | 6.4 | 0.0 | 0.00 | 0.00 | 0.00 | 95 | 1009.0 |
| 20260904122554 | 16 | 360 | 6.4 | 0.0 | 0.00 | 0.00 | 0.00 | 95 | 1009.0 |
| 20260904122056 | 15 | 360 | 4.8 | 0.0 | 0.00 | 0.00 | 0.00 | 94 | 1009.1 |
| 20260904121554 | 15 | 360 | 4.8 | 0.0 | 0.00 | 0.00 | 0.00 | 94 | 1009.1 |
| 20260904121053 | 15 | 360 | 4.8 | 0.0 | 0.00 | 0.00 | 0.00 | 94 | 1009.1 |
| 20260904120553 | 15 | 360 | 4.8 | 0.0 | 0.00 | 0.00 | 0.00 | 94 | 1009.0 |
| 20260904120059 | 16 | 360 | 4.8 | 0.0 | 0.00 | 0.00 | 0.00 | 94 | 1009.0 |
| 20260904115552 | 16 | 360 | 4.8 | 0.0 | 0.00 | 0.00 | 0.00 | 94 | 1009.1 |
| 20260904115055 | 16 | 360 | 4.8 | 0.0 | 0.00 | 0.00 | 0.00 | 94 | 1009.0 |
| 20260904114555 | 16 | 360 | 6.4 | 0.0 | 0.00 | 0.00 | 0.00 | 94 | 1009.1 |
| 20260904113555 | 16 | 360 | 4.8 | 0.0 | 0.00 | 0.00 | 0.00 | 94 | 1009.1 |
| 20260904113052 | 15 | 360 | 4.8 | 0.0 | 0.00 | 0.00 | 0.00 | 94 | 1009.1 |
| 20260904112551 | 16 | 360 | 4.8 | 0.0 | 0.00 | 0.00 | 0.00 | 93 | 1009.1 |
| 20260904112051 | 15 | 360 | 3.2 | 0.0 | 0.00 | 0.00 | 0.00 | 94 | 1009.1 |
| 20260904111551 | 15 | 360 | 3.2 | 0.0 | 0.00 | 0.00 | 0.00 | 93 | 1009.1 |
| 20260904111051 | 16 | 360 | 3.2 | 0.0 | 0.00 | 0.00 | 0.00 | 93 | 1009.1 |
| 20260904110551 | 16 | 360 | 3.2 | 0.0 | 0.00 | 0.00 | 0.00 | 93 | 1009.1 |
| 20260904110051 | 16 | 360 | 4.8 | 0.0 | 0.00 | 0.00 | 0.00 | 93 | 1009.2 |
| 20260904105553 | 16 | 360 | 4.8 | 0.0 | 0.00 | 0.00 | 0.00 | 93 | 1009.2 |
| 20260904105050 | 16 | 360 | 4.8 | 0.0 | 0.00 | 0.00 | 0.00 | 93 | 1009.2 |
| 20260904104549 | 16 | 360 | 4.8 | 0.0 | 0.00 | 0.00 | 0.00 | 93 | 1009.1 |
| 20260904103550 | 16 | 360 | 3.2 | 0.0 | 0.00 | 0.00 | 0.00 | 92 | 1009.2 |
| 20260904103050 | 16 | 360 | 3.2 | 0.0 | 0.00 | 0.00 | 0.00 | 93 | 1009.2 |
| 20260904102550 | 16 | 360 | 3.2 | 0.0 | 0.00 | 0.00 | 0.00 | 92 | 1009.2 |
| 20260904102050 | 16 | 360 | 1.6 | 0.0 | 0.00 | 0.00 | 0.00 | 93 | 1009.2 |
| 20260904101550 | 16 | 360 | 1.6 | 0.0 | 0.00 | 0.00 | 0.00 | 93 | 1009.1 |
| 20260904101051 | 16 | 360 | 1.6 | 0.0 | 0.00 | 0.00 | 0.00 | 93 | 1009.1 |
| 20260904100549 | 16 | 360 | 0.0 | 0.0 | 0.00 | 0.00 | 0.00 | 93 | 1009.1 |
| 20260904100051 | 16 | 360 | 0.0 | 0.0 | 0.00 | 0.00 | 0.00 | 93 | 1009.0 |
| 20260904095550 | 16 | 360 | 0.0 | 0.0 | 0.00 | 0.00 | 0.00 | 92 | 1008.8 |
| 20260904095048 | 16 | 360 | 1.6 | 0.0 | 0.00 | 0.00 | 0.00 | 92 | 1008.8 |
| 20260904094548 | 16 | 360 | 1.6 | 0.0 | 0.00 | 0.00 | 0.00 | 93 | 1008.8 |
| 20260904093547 | 15 | 360 | 0.0 | 0.0 | 0.00 | 0.00 | 0.00 | 92 | 1008.8 |
| 20260904093052 | 15 | 360 | 0.0 | 0.0 | 0.00 | 0.00 | 0.00 | 91 | 1008.9 |
| 20260904092545 | 15 | 360 | 0.0 | 0.0 | 0.00 | 0.00 | 0.00 | 92 | 1009.0 |
| 20260904092048 | 15 | 360 | 0.0 | 0.0 | 0.00 | 0.00 | 0.00 | 92 | 1009.0 |
| 20260904091552 | 15 | 360 | 0.0 | 0.0 | 0.00 | 0.00 | 0.00 | 91 | 1009.0 |
| 20260904091046 | 15 | 360 | 1.6 | 0.0 | 0.00 | 0.00 | 0.00 | 91 | 1008.9 |
| 20260904090544 | 15 | 360 | 0.0 | 0.0 | 0.00 | 0.00 | 0.00 | 91 | 1009.0 |
| 20260904090043 | 16 | 360 | 1.6 | 0.0 | 0.00 | 0.00 | 0.00 | 91 | 1008.8 |
| 20260904085545 | 16 | 360 | 1.6 | 0.0 | 0.00 | 0.00 | 0.00 | 91 | 1008.6 |
| 20260904085044 | 16 | 360 | 0.0 | 0.0 | 0.00 | 0.00 | 0.00 | 91 | 1008.6 |
| 20260904084543 | 16 | 360 | 1.6 | 0.0 | 0.00 | 0.00 | 0.00 | 91 | 1008.5 |
| 20260904083542 | 16 | 360 | 1.6 | 0.0 | 0.00 | 0.00 | 0.00 | 91 | 1008.7 |
| 20260904083043 | 16 | 360 | 1.6 | 0.0 | 0.00 | 0.00 | 0.00 | 90 | 1008.7 |
| 20260904082544 | 16 | 360 | 1.6 | 0.0 | 0.00 | 0.00 | 0.00 | 90 | 1008.7 |
| 20260904082145 | 16 | 360 | 3.2 | 0.0 | 0.00 | 0.00 | 0.00 | 90 | 1008.7 |
| 20260904081542 | 16 | 360 | 3.2 | 0.0 | 0.00 | 0.00 | 0.00 | 90 | 1008.6 |
| 20260904081041 | 16 | 360 | 3.2 | 0.0 | 0.00 | 0.00 | 0.00 | 91 | 1008.7 |
| 20260904080541 | 17 | 360 | 3.2 | 0.0 | 0.00 | 0.00 | 0.00 | 91 | 1008.8 |
| 20260904080041 | 17 | 360 | 3.2 | 0.0 | 0.00 | 0.00 | 0.00 | 91 | 1008.8 |
| 20260904075539 | 16 | 360 | 1.6 | 0.0 | 0.00 | 0.00 | 0.00 | 91 | 1008.8 |
| 20260904075037 | 16 | 360 | 0.0 | 0.0 | 0.00 | 0.00 | 0.00 | 91 | 1008.9 |
| 20260904074552 | 16 | 360 | 0.0 | 0.0 | 0.00 | 0.00 | 0.00 | 90 | 1008.9 |
| 20260904073536 | 16 | 360 | 0.0 | 0.0 | 0.00 | 0.00 | 0.00 | 88 | 1008.7 |
| 20260904073035 | 16 | 360 | 0.0 | 0.0 | 0.00 | 0.00 | 0.00 | 89 | 1008.7 |
| 20260904072535 | 16 | 360 | 1.6 | 0.0 | 0.00 | 0.00 | 0.00 | 87 | 1008.7 |
| 20260904072034 | 16 | 360 | 1.6 | 0.0 | 0.00 | 0.00 | 0.00 | 87 | 1008.6 |
| 20260904071548 | 17 | 360 | 3.2 | 0.0 | 0.00 | 0.00 | 0.00 | 88 | 1008.6 |
| 20260904071034 | 17 | 360 | 4.8 | 0.0 | 0.00 | 0.00 | 0.00 | 89 | 1008.6 |
| 20260904070534 | 17 | 360 | 4.8 | 0.0 | 0.00 | 0.00 | 0.00 | 89 | 1008.6 |
| 20260904070034 | 17 | 360 | 3.2 | 0.0 | 0.00 | 0.00 | 0.00 | 90 | 1008.6 |
| 20260904065533 | 17 | 360 | 3.2 | 0.0 | 0.00 | 0.00 | 0.00 | 89 | 1008.6 |